Volk, WI

3:57 AM CST on February 21, 2018 (GMT -0600)
Volk

Weather History for KVOK - May, 2014

Change the Weather History Date:

Saturday, May 10, 2014

  Actual Average Record
Temperature  
Mean Temperature 53 °F -  
Max Temperature 72 °F 63 °F 84 °F (2007)
Min Temperature 36 °F 48 °F 32 °F (2012)
Degree Days  
Heating Degree Days 12    
Growing Degree Days 3 (Base 50)    
Moisture  
Dew Point 42 °F    
Average Humidity 66    
Maximum Humidity 100    
Minimum Humidity 24    
Precipitation  
Precipitation 0.00 in - - ()
Sea Level Pressure  
Sea Level Pressure 29.91 in    
Wind  
Wind Speed 4 mph (West)    
Max Wind Speed 12 mph    
Max Gust Speed -    
Visibility 10 miles    
Events Rain    
Averages and records for this station are not official NWS values.
T = Trace of Precipitation, MM = Missing Value Source: NWS Daily Summary

Daily Weather History Graph

Daily Weather History Graph

Search for Another Location

Airport or City:

Trip Planner

Search our weather history database for the weather conditions in past years. The results will help you decide how hot, cold, wet, or windy it might be!

Date:

Astronomy

May. 10, 2014 Rise Set
Actual Time 5:40 AM CDT 8:14 PM CDT
Civil Twilight 5:08 AM CDT 8:47 PM CDT
Nautical Twilight 4:27 AM CDT 9:28 PM CDT
Astronomical Twilight 3:40 AM CDT 10:15 PM CDT
Moon 4:02 PM CDT (5/10) 3:23 AM CDT (5/10)
Length of Visible Light 15h 39m
Length of Day
14h 33m
Waxing Gibbous, 82% of the Moon is Illuminated
May 10
Waxing Gibbous
May 14
Full
May 21
Last Quarter
May 28
New
Jun 5
First Quarter

Hourly Weather History & Observations

Time (CDT) Temp. Windchill Dew Point Humidity Pressure Visibility Wind Dir Wind Speed Gust Speed Precip Events Conditions
12:58 AM 37.6 °F - 37.6 °F 100% 29.86 in 10.0 mi Calm Calm - N/A   Clear
1:58 AM 39.6 °F - 39.2 °F 99% 29.86 in 10.0 mi West 2.3 mph - N/A   Clear
2:58 AM 45.9 °F 43.6 °F 42.3 °F 87% 29.87 in 10.0 mi SW 4.6 mph - N/A   Clear
3:58 AM 43.2 °F 40.5 °F 40.8 °F 91% 29.88 in 10.0 mi Variable 4.6 mph - N/A   Clear
4:58 AM 39.7 °F 36.5 °F 39.6 °F 99% 29.89 in 10.0 mi West 4.6 mph - N/A   Clear
5:58 AM 36.9 °F - 36.7 °F 99% 29.91 in 10.0 mi Calm Calm - N/A   Clear
6:58 AM 42.1 °F - 42.1 °F 100% 29.93 in 10.0 mi Calm Calm - N/A   Clear
7:58 AM 51.8 °F - 42.8 °F 71% 29.94 in 10.0 mi West 4.6 mph - N/A   Partly Cloudy
8:58 AM 59.0 °F - 39.2 °F 48% 29.95 in 10.0 mi NW 8.1 mph - N/A   Partly Cloudy
9:58 AM 60.8 °F - 37.4 °F 42% 29.95 in 10.0 mi WNW 10.4 mph - N/A   Partly Cloudy
10:58 AM 64.4 °F - 35.6 °F 34% 29.95 in 10.0 mi WNW 9.2 mph - N/A   Scattered Clouds
11:58 AM 64.4 °F - 32.0 °F 30% 29.94 in 10.0 mi West 8.1 mph - N/A   Scattered Clouds
12:58 PM 68.0 °F - 30.2 °F 24% 29.93 in 10.0 mi Variable 1.2 mph - N/A   Scattered Clouds
1:58 PM 69.8 °F - 32.0 °F 25% 29.91 in 10.0 mi WSW 5.8 mph - N/A   Scattered Clouds
2:58 PM 69.8 °F - 33.8 °F 27% 29.90 in 10.0 mi Variable 4.6 mph - N/A   Scattered Clouds
3:58 PM 70.3 °F - 38.7 °F 31% 29.89 in 10.0 mi Variable 5.8 mph - N/A   Scattered Clouds
4:58 PM 70.2 °F - 40.8 °F 34% 29.90 in 10.0 mi West 11.5 mph - N/A   Mostly Cloudy
5:58 PM 65.1 °F - 47.5 °F 53% 29.91 in 10.0 mi SW 9.2 mph - 0.00 in   Clear
6:22 PM 64.4 °F - 51.8 °F 64% 29.89 in 10.0 mi West 4.6 mph - N/A Rain Light Rain
6:33 PM 62.6 °F - 51.8 °F 68% 29.89 in 10.0 mi WNW 5.8 mph - N/A   Mostly Cloudy
6:58 PM 63.0 °F - 50.9 °F 65% 29.90 in 10.0 mi NNW 4.6 mph - 0.00 in   Partly Cloudy
7:58 PM 59.2 °F - 49.3 °F 70% 29.89 in 10.0 mi SSE 1.2 mph - N/A   Clear
8:58 PM 54.7 °F - 50.9 °F 87% 29.89 in 10.0 mi North 1.2 mph - N/A   Scattered Clouds
9:58 PM 55.9 °F - 51.6 °F 85% 29.91 in 10.0 mi ESE 3.5 mph - N/A   Mostly Cloudy
10:58 PM 52.7 °F - 50.2 °F 91% 29.91 in 10.0 mi SE 2.3 mph - N/A   Scattered Clouds
11:58 PM 55.9 °F - 50.2 °F 81% 29.92 in 10.0 mi SSE 3.5 mph - N/A   Scattered Clouds